GFSGBSN_con_3kmhel_327.txt.gz
Helicity
145 150 148 164 139 102 97 83 66 50 53 39 39 51 72 101 117 154 156 186 189 196 166 129 122 120 18 56 32 110 67 14 37 39 102 65 73 63 35 43 102 138 39 36 1 -24 -31
144 145 158 161 165 125 93 62 36 38 44 43 32 43 43 79 128 168 190 187 201 194 162 116 86 70 33 64 90 133 79 -7 30 50 58 59 60 88 120 67 42 52 84 67 17 2 -35
123 134 133 165 140 130 129 93 63 43 36 38 39 41 55 51 106 173 207 216 217 181 121 96 71 37 55 43 108 138 82 53 55 22 67 122 136 71 111 142 121 125 157 93 37 -10 -12
147 136 128 135 145 126 106 97 75 57 41 51 57 53 42 51 87 158 214 247 223 141 98 55 38 51 49 62 82 168 164 174 160 139 93 74 145 188 146 163 156 147 141 72 -2 -15 -11
168 171 151 145 139 125 130 101 93 80 77 65 46 63 54 40 82 135 203 241 167 71 56 47 60 66 69 72 94 165 124 122 111 95 61 19 59 128 150 205 161 106 62 47 10 1 5
121 158 161 156 152 147 154 138 127 84 89 72 71 62 78 70 82 117 183 168 50 60 50 49 62 89 86 99 118 140 123 122 82 46 58 69 54 104 75 59 27 55 65 45 24 16 17
99 109 131 152 156 145 164 170 136 117 82 81 78 86 91 95 100 120 49 38 77 66 84 80 95 86 58 98 94 129 98 90 67 78 67 76 29 1 -4 43 52 62 48 56 11 34 41
116 98 107 119 135 152 148 155 141 101 79 81 86 83 102 126 124 78 -20 36 61 48 88 53 44 84 74 74 101 133 112 90 76 66 64 92 42 20 88 99 94 61 42 42 41 33 13
112 109 107 110 121 129 137 144 142 124 79 70 81 81 91 121 128 22 -4 19 68 33 73 70 53 61 76 95 89 111 113 87 72 80 78 71 83 94 75 81 80 50 27 34 31 38 23
103 104 99 103 109 118 121 130 138 144 132 82 110 85 89 183 32 49 30 68 33 21 118 87 86 81 80 83 108 99 117 96 104 78 116 102 101 129 92 70 65 90 25 35 44 18 42
85 95 95 96 104 114 111 118 120 138 150 133 133 137 142 69 60 67 45 64 27 51 136 74 110 106 123 113 104 144 132 100 79 92 92 83 90 112 92 56 71 69 70 70 49 46 17
123 106 95 96 90 105 122 110 108 123 139 146 156 182 187 44 57 49 69 44 55 155 122 76 64 108 134 156 135 137 148 140 91 104 122 91 86 99 110 112 91 74 144 129 85 59 28
112 118 104 94 97 92 103 112 104 110 128 131 152 215 202 98 79 113 94 72 155 170 97 86 73 67 100 123 139 130 151 155 104 97 113 127 122 112 119 140 137 109 128 94 69 76 37
65 93 100 100 104 108 105 106 102 107 120 124 133 195 129 124 136 116 125 159 166 127 118 70 65 119 88 93 124 118 121 124 122 103 86 96 84 124 153 142 95 112 105 94 48 52 54
57 67 80 85 91 111 109 110 101 98 111 107 108 58 101 131 125 111 147 187 111 128 89 84 115 109 79 93 97 128 99 75 78 58 90 85 93 114 148 161 147 132 129 113 105 90 63
52 61 72 76 76 88 94 107 106 99 104 106 78 67 90 127 85 158 147 167 173 124 78 106 81 91 79 90 104 84 72 59 74 99 80 74 82 105 136 140 185 158 156 146 165 97 60
45 50 63 83 78 88 85 87 96 99 105 108 85 136 95 133 162 206 145 153 197 169 106 95 85 106 75 74 77 75 47 58 50 102 130 111 123 85 115 118 112 146 160 194 167 167 110
42 46 65 71 69 79 90 98 99 82 105 72 116 170 106 116 256 215 156 152 223 234 132 116 99 102 74 60 91 78 57 69 71 75 113 160 119 110 98 106 116 130 118 142 153 116 146
44 45 47 57 61 72 98 102 113 94 73 85 137 177 138 150 252 234 176 173 158 230 142 109 96 96 94 74 91 92 85 88 62 74 83 114 144 140 120 99 114 106 121 143 166 154 125
44 41 42 41 51 60 88 109 125 108 80 86 142 169 189 164 182 202 180 174 144 125 101 154 99 104 111 117 139 86 116 93 88 75 37 104 98 106 89 98 82 96 86 120 171 155 143
42 44 36 39 38 54 70 94 120 118 83 106 146 171 166 194 181 189 163 100 155 98 123 191 140 105 110 122 135 107 122 113 106 74 79 90 58 69 74 67 68 81 74 87 121 157 139
38 44 38 33 35 41 59 77 107 104 90 130 182 210 200 160 148 96 167 117 71 35 187 195 143 87 101 87 71 63 115 108 103 91 109 134 81 78 72 92 65 51 56 89 109 157 123
27 27 37 36 38 36 47 63 103 107 96 119 130 137 174 165 153 128 134 126 117 82 58 195 381 99 109 81 79 84 99 104 104 101 152 165 131 102 77 101 90 37 69 94 115 126 115
28 28 17 29 35 30 34 46 80 95 67 122 142 131 167 174 139 120 96 93 106 142 87 105 367 151 104 105 145 191 216 181 177 190 158 166 187 145 88 80 32 60 62 62 57 51 33
31 38 32 30 37 38 27 32 56 84 31 123 87 112 209 183 217 175 138 107 91 68 160 137 305 200 112 222 194 165 204 182 197 206 193 170 163 141 89 86 58 38 88 62 62 75 53
32 44 39 34 41 45 43 37 54 85 44 105 88 102 99 124 96 165 194 98 103 142 125 118 93 95 170 198 235 168 149 142 143 158 189 193 170 128 117 83 36 60 65 67 57 35 62
36 44 48 41 51 51 45 40 56 87 54 96 84 82 129 85 26 127 111 88 64 109 112 182 179 225 239 204 219 191 168 153 111 85 126 193 170 138 131 87 53 66 124 81 63 67 56
42 52 56 56 54 48 44 46 60 72 58 103 93 75 107 55 -34 -15 62 192 258 155 154 181 266 283 254 245 240 195 151 137 122 100 78 97 97 90 130 102 26 92 114 64 66 74 80
45 52 55 48 43 43 43 51 64 63 55 87 110 87 78 48 -28 33 28 54 123 194 156 136 131 175 209 257 210 189 170 167 126 107 137 101 100 71 58 52 87 61 109 90 79 87 78

GFSGBSN_con_3kmhel_330.txt.gz
Helicity
149 147 149 146 125 127 115 100 79 69 53 45 49 67 79 80 100 147 173 182 211 194 167 138 146 134 22 8 23 36 10 7 22 -8 30 59 39 26 34 37 67 107 67 63 53 30 5
132 144 148 153 158 153 146 108 66 58 62 51 63 69 92 104 100 139 176 194 217 195 155 112 126 115 36 10 60 54 22 12 -2 -11 39 16 23 82 85 74 39 66 79 76 40 30 -28
126 127 135 139 142 121 115 102 102 73 73 88 77 73 92 114 120 140 180 203 217 178 135 94 78 58 48 50 76 59 47 28 9 2 45 76 110 62 106 130 105 123 140 70 47 31 11
128 142 139 150 149 128 99 98 90 78 71 66 87 93 95 116 125 137 190 216 206 132 99 67 76 60 45 66 71 102 83 117 94 92 122 101 139 124 116 130 108 100 61 24 45 35 22
118 130 137 141 143 140 120 98 111 98 84 83 68 89 109 125 132 143 197 241 134 81 61 46 68 80 56 67 78 109 80 105 98 92 106 71 107 113 91 108 91 41 44 28 54 22 21
108 114 123 129 136 134 133 116 116 109 81 78 95 94 122 140 136 159 188 176 34 52 48 43 51 92 67 84 100 96 118 105 91 63 45 48 53 69 50 23 45 38 50 22 26 38 23
103 102 125 133 125 131 131 115 112 124 100 92 76 106 133 158 162 164 64 29 63 41 96 96 95 94 101 110 97 94 123 79 70 56 64 55 43 40 44 20 22 31 19 22 19 59 29
128 111 102 123 130 117 113 119 105 108 131 86 101 89 148 152 193 125 11 40 39 57 94 75 75 71 69 115 84 90 93 62 50 54 57 48 39 44 81 60 65 41 29 56 68 55 29
112 118 107 108 125 122 115 115 118 112 122 125 106 119 163 158 159 44 32 36 32 5 69 70 71 74 70 94 100 88 100 88 57 35 47 88 95 109 83 75 59 38 18 58 63 54 14
100 104 103 103 101 120 119 115 115 118 123 137 141 148 204 246 52 85 65 63 26 -6 92 70 68 75 70 86 88 125 133 109 81 46 56 77 79 91 73 68 42 45 31 28 62 24 42
97 85 93 97 97 98 116 115 110 114 120 130 147 175 249 178 107 84 90 69 19 37 126 79 96 118 103 108 106 119 133 109 70 63 61 89 70 89 49 51 29 83 53 50 54 40 25
112 108 95 97 100 99 102 98 115 118 112 112 151 172 277 95 99 84 83 69 39 128 135 64 64 83 101 118 121 112 130 142 141 99 100 91 75 97 91 51 62 50 72 78 64 43 25
82 88 97 94 102 110 110 110 97 113 114 101 136 178 197 150 134 131 120 81 144 165 94 71 65 50 58 83 119 91 81 104 90 90 77 85 92 73 80 69 76 50 44 60 39 45 51
54 73 77 94 102 106 113 114 105 96 107 117 142 184 103 109 143 186 136 169 171 120 124 52 75 60 44 57 86 94 70 61 114 105 69 69 81 85 101 116 78 53 52 73 68 40 57
51 58 64 84 96 109 109 110 103 95 100 108 147 87 104 130 151 134 177 199 150 160 107 81 60 52 56 62 76 83 52 38 48 79 49 50 81 86 120 123 111 86 88 119 79 68 41
25 41 59 74 85 99 109 103 110 96 99 111 113 100 117 158 151 172 228 184 210 147 93 86 87 89 91 43 48 48 56 63 70 82 113 73 89 78 105 116 132 132 134 99 124 94 45
23 31 40 56 82 87 103 103 110 104 97 111 75 144 100 151 207 196 214 207 190 178 99 92 83 85 78 64 22 54 72 79 68 90 116 89 94 73 86 83 82 135 121 143 136 139 111
40 34 35 42 60 65 83 88 100 112 105 59 102 158 92 139 197 197 206 235 232 137 113 91 94 87 54 54 44 47 57 94 57 45 57 106 85 102 122 108 123 132 117 95 120 109 139
41 40 40 37 46 54 61 75 86 103 84 97 121 151 83 129 202 155 154 189 249 192 135 127 87 82 74 66 77 52 58 75 50 46 50 81 110 161 120 106 107 113 103 148 169 155 94
50 39 39 33 35 42 47 63 88 97 75 92 133 179 138 152 207 217 103 120 160 172 132 210 155 110 75 72 92 80 92 101 90 60 90 78 111 128 136 142 125 99 86 128 152 143 109
50 48 40 34 33 33 42 57 75 97 76 94 124 158 187 174 151 157 125 118 100 128 119 123 126 167 105 69 79 94 76 111 106 90 88 99 88 117 115 98 76 78 75 73 97 53 105
50 54 44 40 38 33 32 48 71 100 93 104 133 160 191 198 169 105 145 133 92 154 116 114 157 333 150 81 69 69 62 70 107 96 96 100 105 114 109 76 49 44 24 33 32 45 60
48 39 48 47 45 30 26 36 58 89 82 113 120 135 157 172 158 130 116 109 154 98 77 98 9 139 199 135 80 91 79 90 99 85 87 115 117 103 96 99 84 30 22 13 63 101 72
47 37 43 44 43 38 31 34 43 76 67 97 102 150 150 161 178 147 190 117 87 108 105 49 52 -9 235 135 27 92 115 102 108 151 145 137 142 143 102 81 16 76 98 80 62 56 42
66 46 52 39 40 36 34 33 41 57 66 75 81 143 160 149 179 184 172 174 169 87 111 145 144 144 226 187 176 135 155 127 128 155 140 143 142 139 101 48 28 29 129 90 60 45 52
75 67 48 38 36 36 40 40 35 44 69 56 62 77 134 153 127 149 182 222 172 109 95 115 133 148 241 296 265 214 242 173 110 124 180 157 153 107 103 69 10 62 78 86 45 50 72
83 84 64 41 32 38 40 39 42 42 59 44 74 32 124 111 124 178 144 179 214 139 120 115 131 181 214 356 323 227 194 209 119 112 168 183 173 141 113 60 26 109 123 97 36 64 69
79 63 59 55 58 50 45 47 43 48 52 37 62 33 83 92 63 93 117 111 100 164 168 115 174 192 204 310 451 313 223 192 181 109 125 139 185 157 124 109 43 125 134 69 88 101 98
77 75 63 49 48 54 50 53 48 49 49 44 85 36 46 99 66 57 32 7 62 142 139 231 115 145 198 222 191 350 222 197 169 119 137 111 121 122 68 54 103 69 64 102 104 120 101

GFSGBSN_con_3kmhel_336.txt.gz
Helicity
90 92 82 78 77 65 53 48 48 46 49 76 78 74 91 113 130 145 148 167 183 177 160 106 80 74 17 -19 -21 11 20 2 12 13 18 98 5 25 18 6 10 28 46 50 55 58 62
87 95 94 92 88 76 66 53 40 25 39 47 64 70 70 96 123 157 170 176 175 174 152 91 69 66 21 -7 50 45 1 -8 -8 -15 1 89 8 34 28 73 62 61 43 58 28 46 74
67 76 82 90 98 94 82 63 58 34 7 18 44 70 67 72 101 141 184 175 188 158 116 86 50 55 43 -33 30 43 10 -15 -15 17 -1 14 -4 32 42 29 21 41 55 35 38 75 41
55 54 61 77 82 93 95 87 75 75 49 -2 23 57 68 67 80 116 187 199 180 142 70 59 42 48 42 73 67 18 24 4 -6 -17 -18 102 112 57 41 71 22 20 25 31 91 75 89
59 55 57 55 59 71 87 97 88 88 96 64 18 57 77 68 75 118 162 222 165 62 34 40 54 39 35 47 19 33 17 13 43 58 74 48 17 16 40 18 23 12 9 17 117 110 84
81 64 59 63 67 68 62 77 91 98 98 108 76 61 90 91 84 137 166 246 98 24 18 11 40 53 37 36 86 76 39 53 36 56 19 12 14 10 11 9 -5 12 -41 6 81 124 42
86 87 72 65 66 67 72 69 74 85 97 110 134 107 106 106 121 144 118 73 66 42 74 83 138 36 83 99 89 35 79 61 46 21 17 16 22 12 -1 18 -29 -5 32 -29 64 128 61
91 91 89 81 75 70 67 70 74 71 97 112 125 159 152 139 148 127 122 84 84 74 86 60 54 90 139 102 52 28 66 53 44 21 -18 29 3 -1 -14 14 38 60 9 4 77 114 92
86 85 95 93 90 84 80 71 70 77 81 105 132 156 204 185 192 48 49 106 65 50 55 59 35 40 44 46 36 22 45 24 17 10 2 33 -4 58 100 78 34 12 22 12 51 99 38
89 81 88 90 88 93 92 77 70 76 85 92 127 177 215 285 94 98 70 70 71 36 71 35 62 73 97 61 63 32 63 58 27 28 2 24 77 87 63 61 48 37 119 63 57 67 4
89 90 86 84 87 90 90 83 79 78 80 96 117 173 230 248 154 156 81 68 53 59 130 71 49 130 72 73 77 73 69 59 28 25 62 63 101 61 51 34 81 113 100 89 95 89 48
78 82 86 88 93 106 94 75 80 88 89 89 124 150 218 109 102 162 73 71 59 142 125 59 90 66 93 67 80 77 58 64 63 -2 75 57 87 88 63 75 113 96 73 45 48 43 46
63 72 77 77 91 101 105 77 78 89 101 103 124 185 127 85 143 130 104 99 169 172 104 51 40 22 38 71 38 95 66 54 75 82 42 31 50 94 99 115 92 52 69 77 69 57 61
57 70 78 85 93 95 100 83 90 96 101 118 160 201 59 52 99 98 144 171 191 130 118 131 87 46 24 19 60 67 58 38 14 19 40 16 54 92 65 75 48 55 51 90 70 66 120
67 69 70 76 79 81 85 87 97 105 111 131 206 76 64 54 68 83 219 181 161 209 64 81 98 48 39 21 69 51 41 30 28 29 15 63 47 215 82 58 94 61 70 65 108 94 73
66 65 68 64 66 67 74 83 96 113 124 127 133 105 84 75 89 129 213 168 129 112 137 190 108 44 39 38 90 82 46 29 12 35 36 26 71 48 99 107 85 134 172 120 149 127 91
62 49 45 41 44 52 66 81 94 117 146 135 105 128 111 60 92 175 198 211 140 95 146 225 130 126 90 22 40 31 41 66 59 29 97 21 96 107 119 57 54 102 146 149 155 138 144
55 46 39 33 29 36 55 75 93 113 188 119 125 161 86 51 160 172 158 144 189 136 70 110 193 263 108 79 50 45 28 56 71 105 85 50 112 104 51 119 96 124 61 74 199 158 174
61 57 50 39 28 28 48 64 84 103 144 139 151 186 65 70 210 166 128 109 180 129 179 110 93 131 184 248 166 73 32 120 89 74 119 56 143 123 135 94 97 72 65 185 186 129 103
60 55 46 31 18 16 29 47 80 98 127 146 222 230 199 110 169 245 125 117 117 166 148 140 104 96 100 114 114 116 58 116 80 80 109 178 110 80 114 116 117 81 52 183 189 246 208
54 61 56 39 25 16 10 31 65 90 118 137 174 155 205 186 127 151 200 212 170 116 48 169 156 117 148 140 95 116 144 84 68 90 82 109 111 78 35 51 70 61 68 111 132 69 102
54 54 52 45 36 30 19 23 46 69 102 141 251 192 207 222 253 131 116 195 248 229 46 59 160 124 170 172 153 229 164 65 45 65 70 79 110 84 72 53 57 54 60 120 81 27 29
52 50 56 61 60 44 34 25 28 54 82 147 172 154 80 162 179 163 117 66 157 184 182 179 67 74 111 160 124 168 140 186 98 53 58 99 124 136 119 41 77 73 59 46 29 66 89
61 52 42 49 58 62 52 41 33 30 46 138 185 206 149 130 225 163 97 71 89 118 168 201 181 221 89 60 116 154 122 137 240 104 60 106 102 155 132 154 122 70 12 46 61 36 39
69 56 53 61 65 65 58 50 40 29 36 74 127 132 121 93 200 252 174 183 183 193 188 143 58 117 271 108 120 165 207 201 174 135 110 73 99 217 149 139 53 30 48 78 48 21 62
63 58 56 63 66 66 60 49 45 34 30 56 77 111 93 121 116 230 270 220 217 187 104 147 64 99 255 147 187 120 157 220 206 199 151 110 130 165 147 119 86 20 133 145 68 31 83
56 56 62 66 73 78 69 58 54 43 29 44 69 82 54 102 112 184 224 227 184 183 137 190 120 46 106 195 185 133 142 127 131 133 207 188 159 189 156 123 69 27 148 106 55 74 171
58 59 64 65 78 94 84 63 55 44 33 49 61 98 45 70 95 200 187 198 138 110 125 139 166 151 111 146 141 154 99 175 136 177 60 125 195 197 181 153 47 72 162 73 109 149 137
72 70 74 74 85 103 108 75 54 50 36 39 66 67 60 57 69 128 151 158 171 116 88 62 166 190 114 74 94 124 152 126 121 146 27 83 158 203 145 155 116 42 129 98 71 137 147

GFSGBSN_con_3kmhel_342.txt.gz
Helicity
69 70 70 76 71 70 66 62 55 36 39 45 48 45 32 36 57 82 121 146 131 140 159 134 90 80 23 40 40 15 84 38 27 2 15 15 57 53 108 12 29 83 42 54 46 50 77
69 65 66 67 77 73 76 78 80 75 70 71 67 74 59 43 48 64 102 125 149 123 139 125 82 63 30 41 27 63 90 41 12 3 7 28 7 15 23 34 30 17 38 45 56 -4 64
66 68 66 67 68 73 71 72 81 96 97 98 87 101 100 80 66 72 90 120 158 123 133 84 56 37 36 -3 53 32 69 39 29 13 1 14 31 82 19 25 9 32 43 39 35 31 55
63 69 73 70 64 66 74 74 70 75 94 109 128 129 128 118 97 84 90 105 149 148 98 31 24 39 8 30 34 28 67 23 12 31 38 69 36 22 21 56 54 29 56 57 14 65 71
61 61 65 72 76 70 71 80 80 79 82 98 110 142 161 152 136 123 102 128 164 136 15 29 45 45 23 108 45 13 50 33 23 29 30 39 43 30 53 33 25 49 26 67 57 106 109
73 76 74 76 80 79 77 81 89 92 89 92 115 126 162 190 185 162 139 178 101 80 38 36 60 69 49 44 53 54 28 29 109 84 70 76 87 70 61 56 61 41 32 29 76 114 241
61 76 81 82 80 89 95 85 93 102 108 115 121 139 146 196 222 193 118 54 90 89 114 77 64 70 108 111 71 40 52 112 113 85 53 57 83 44 12 43 55 73 40 55 55 141 185
70 72 76 82 86 89 101 110 103 107 129 142 153 162 186 194 242 199 36 76 70 25 66 48 20 17 24 111 73 33 31 77 85 55 60 110 57 39 66 31 42 35 48 39 30 60 96
65 71 74 79 85 94 98 100 108 113 123 147 175 189 218 239 251 78 74 119 107 52 45 47 50 42 34 84 50 37 68 54 79 44 51 75 28 66 65 38 61 85 84 77 26 49 9
67 70 68 75 79 83 89 102 109 108 120 137 169 192 226 353 97 95 69 139 90 42 85 61 73 53 82 96 45 52 45 68 76 47 39 62 35 74 61 51 55 58 62 88 138 84 57
68 72 68 66 72 77 82 83 89 109 112 124 154 175 184 191 72 68 90 119 85 67 136 55 87 65 93 172 66 56 101 113 69 79 110 72 100 115 89 52 57 45 49 71 68 99 104
72 76 68 74 73 75 73 74 84 87 101 117 136 161 161 80 56 21 102 115 78 163 121 112 71 73 145 89 83 104 151 135 74 76 86 56 59 91 62 73 51 54 86 95 75 74 103
64 62 60 75 75 73 77 78 79 86 99 95 135 181 115 64 52 67 89 117 169 194 113 126 75 83 103 92 64 102 142 152 124 138 84 111 86 84 82 76 92 114 120 99 101 112 59
61 56 54 59 70 75 83 84 83 93 108 104 144 162 38 76 69 98 122 190 178 133 117 172 134 133 104 90 54 111 162 142 122 148 100 99 94 88 101 94 96 86 76 106 84 102 87
59 58 52 49 53 67 73 86 100 107 117 113 135 63 59 69 49 88 187 223 132 109 120 190 209 166 115 86 88 90 100 110 78 112 117 112 107 94 89 95 96 92 95 51 118 116 103
52 57 52 53 58 61 69 80 101 131 154 146 101 95 74 77 74 137 226 199 177 96 192 235 243 199 127 93 90 104 89 83 124 79 129 72 126 99 131 128 133 87 93 124 138 115 94
49 54 56 53 54 52 65 85 117 146 174 158 77 122 83 101 117 196 177 219 168 74 129 193 254 256 218 207 154 107 71 27 58 79 135 103 105 106 119 122 99 121 118 142 124 129 93
52 55 59 55 52 49 57 74 104 134 199 105 105 150 102 119 192 210 145 155 133 104 67 99 147 192 162 176 155 154 125 91 46 114 116 77 107 144 98 124 80 106 88 151 140 107 108
72 65 58 49 47 48 54 74 101 119 154 132 165 188 176 170 181 179 210 187 143 63 19 125 191 165 116 130 196 187 171 179 125 135 132 141 166 219 210 188 213 137 118 131 129 101 96
95 80 61 46 48 52 51 68 101 120 144 132 187 212 226 207 184 167 170 122 115 110 83 51 133 140 52 80 129 194 325 143 192 178 144 195 190 168 184 123 168 132 109 130 127 118 115
124 95 74 49 41 50 54 62 84 114 135 151 212 229 208 223 230 190 171 180 206 171 104 80 85 108 62 44 165 154 168 267 128 167 174 154 155 132 91 114 106 86 107 121 146 123 157
126 115 85 64 61 62 63 55 68 83 111 170 222 249 236 212 165 132 110 90 110 124 100 168 164 145 109 44 84 131 142 223 260 203 171 189 107 138 117 115 90 77 74 84 88 125 127
125 116 91 84 64 49 43 41 46 64 88 163 206 188 138 180 156 133 148 181 162 161 115 156 190 173 115 62 139 92 99 127 206 254 235 187 153 201 127 90 89 101 65 77 123 134 113
122 106 87 76 63 53 47 50 49 46 67 110 165 179 149 136 132 150 194 203 163 170 117 221 208 229 160 120 70 119 144 133 160 253 193 176 177 167 134 181 138 53 82 97 128 120 142
115 105 82 68 52 57 56 56 57 50 53 93 126 142 152 127 129 141 178 122 151 122 114 67 127 120 185 162 149 170 176 166 133 152 186 152 207 187 182 164 151 121 104 87 103 30 67
120 105 67 50 48 53 48 43 53 59 57 84 98 106 125 137 132 174 168 152 105 101 148 143 173 155 87 140 174 127 212 201 223 269 225 239 237 215 154 145 126 50 61 56 115 29 103
121 88 47 39 42 50 43 39 49 57 46 80 99 105 123 144 131 157 175 184 159 157 120 113 187 220 107 56 179 159 228 206 237 258 362 356 336 215 229 132 139 77 110 120 150 18 143
118 68 57 47 45 44 42 36 38 47 41 76 76 83 110 117 64 111 122 127 148 139 127 114 101 145 155 34 -8 144 322 311 206 192 214 316 274 223 246 196 122 63 144 99 50 97 145
109 65 65 46 37 38 38 37 42 49 51 84 68 92 100 105 62 82 71 64 69 72 62 40 88 121 145 89 -49 -11 158 249 167 131 186 168 211 202 159 133 83 59 55 83 79 92 103

GFSGBSN_con_3kmhel_345.txt.gz
Helicity
64 63 63 72 73 75 71 75 71 64 68 71 74 83 87 80 82 80 81 102 104 95 139 135 125 80 24 41 55 25 53 50 36 25 11 22 68 56 142 82 30 64 27 10 23 51 79
77 71 67 63 69 73 76 71 77 85 90 92 93 96 97 91 85 95 93 99 113 88 97 124 98 61 42 47 43 47 72 73 31 16 22 23 43 28 46 65 73 30 25 11 42 28 25
79 75 73 74 71 70 74 79 77 82 100 105 117 127 128 123 105 98 100 105 115 101 79 98 35 22 38 21 60 29 30 74 90 35 22 18 24 47 57 62 24 34 28 31 42 40 27
74 81 84 86 85 84 83 84 78 80 88 107 120 126 148 161 151 130 115 120 117 95 82 32 -13 31 -0 18 35 35 57 51 52 58 37 35 48 39 69 30 62 44 67 79 35 67 32
71 72 77 85 94 99 99 95 97 94 92 93 106 124 142 171 167 187 154 121 138 37 49 40 42 56 34 101 68 23 65 31 58 70 46 60 48 53 83 92 81 68 70 50 51 76 114
69 71 79 86 88 92 101 108 110 114 117 113 110 123 148 173 208 192 171 127 31 43 62 51 66 69 39 85 84 82 22 38 66 68 70 106 139 126 109 103 63 96 71 38 49 65 173
77 81 82 80 86 96 103 109 120 127 136 139 139 145 171 200 221 183 97 71 103 86 106 86 62 69 57 135 72 73 91 80 87 105 55 98 120 90 34 62 53 82 91 98 23 71 224
61 68 81 95 97 100 103 110 114 123 143 159 158 164 189 224 216 128 30 86 105 62 69 44 10 10 -12 114 91 75 73 128 104 64 70 100 39 -7 66 54 54 39 72 65 19 29 85
68 72 72 75 87 97 108 117 126 134 143 161 168 177 226 230 225 47 41 70 102 66 44 62 42 21 22 66 53 47 67 124 92 68 63 63 23 66 85 92 92 85 82 46 35 71 45
76 84 80 80 81 86 96 108 119 130 148 171 182 182 229 315 78 81 62 112 83 34 98 70 72 33 72 95 53 32 42 78 97 55 61 46 17 29 92 76 106 117 39 51 102 104 66
68 69 72 69 72 79 84 94 105 112 127 157 179 194 199 134 73 88 95 138 64 54 141 65 83 68 97 155 58 87 77 111 86 94 127 74 81 78 78 76 80 70 55 56 80 95 116
67 70 65 59 60 71 79 82 94 100 113 129 155 176 184 79 74 63 130 139 87 121 152 104 66 81 141 123 108 93 111 137 73 98 115 74 70 76 90 91 77 66 88 120 112 111 137
67 70 59 55 58 68 73 83 92 106 115 121 146 167 122 68 75 86 127 143 178 141 94 146 108 76 91 80 80 124 131 163 137 168 116 120 84 82 77 82 117 96 102 95 114 157 111
65 64 49 41 51 60 70 77 88 105 117 127 152 167 40 71 71 97 145 229 164 97 124 154 120 121 106 98 89 97 112 139 162 149 121 115 101 110 96 72 44 67 89 106 84 94 72
61 61 54 47 50 62 74 78 86 107 121 129 150 59 65 58 51 83 178 249 145 163 159 203 230 135 113 108 96 142 101 83 104 137 110 108 103 118 97 88 117 101 97 84 121 119 89
65 68 64 62 51 60 71 83 100 123 134 147 82 89 86 82 59 141 206 213 182 132 178 199 189 218 155 106 113 114 123 73 108 109 154 83 97 99 100 130 140 108 68 128 159 128 95
63 63 60 59 59 61 67 80 101 129 151 107 82 131 92 123 93 176 191 193 136 88 136 182 235 257 235 163 154 125 113 102 67 96 136 152 127 144 133 121 124 164 139 132 106 144 104
76 61 61 62 56 60 62 77 95 126 154 91 104 165 116 138 176 173 159 126 135 87 95 126 143 137 201 211 161 139 98 82 89 161 127 106 128 126 106 107 77 104 123 159 134 101 124
91 72 65 57 49 55 58 70 79 105 123 102 151 159 134 133 170 165 178 161 133 85 93 140 134 150 156 169 140 149 126 108 74 83 116 132 167 192 191 171 140 117 139 161 164 138 107
102 88 70 56 45 48 52 66 69 91 111 99 151 180 187 172 186 173 175 157 140 126 62 78 120 147 116 101 121 144 184 172 125 84 139 237 182 174 181 97 145 145 138 176 167 115 118
123 105 81 66 43 41 47 54 59 82 114 116 173 192 196 196 236 190 161 173 180 196 163 135 125 114 112 69 37 61 70 188 177 209 187 180 164 182 154 156 152 114 140 169 159 133 141
145 126 97 80 65 48 49 50 51 70 111 158 190 208 217 194 188 177 146 143 158 178 169 268 199 230 262 150 52 47 80 84 178 226 199 213 196 170 143 138 129 128 102 111 119 126 101
127 133 117 99 78 56 51 54 60 86 118 170 184 188 175 200 196 190 199 221 187 193 156 172 174 183 202 192 195 127 89 67 78 167 204 226 220 218 130 128 129 166 117 153 113 92 109
177 137 132 107 90 71 61 56 56 65 85 120 160 174 178 219 171 175 180 173 185 140 136 167 149 124 158 194 199 77 103 108 95 143 151 203 228 234 105 146 156 86 80 112 127 110 128
152 134 129 114 90 71 68 61 57 52 61 94 109 156 164 172 156 164 189 123 108 81 70 53 60 64 148 95 82 40 86 133 105 84 146 172 194 240 199 129 135 125 112 106 151 59 133
197 145 128 117 97 78 72 70 77 63 65 93 98 110 121 128 123 128 128 105 97 73 81 49 75 81 92 96 93 109 59 96 91 138 129 208 183 200 217 158 74 54 90 90 113 69 103
165 165 126 119 96 76 68 76 81 66 59 95 98 98 132 101 118 122 132 133 132 111 91 71 66 138 100 109 93 102 102 84 138 116 216 251 279 217 259 161 154 116 65 120 139 44 62
168 126 127 117 82 67 62 71 69 64 55 87 92 86 107 107 99 107 120 116 134 119 120 132 105 78 121 122 72 37 51 166 148 176 176 260 270 262 300 220 105 83 148 146 51 68 47
189 140 131 105 70 55 53 56 56 54 52 82 86 91 88 76 63 79 75 65 63 58 108 119 159 119 154 143 154 116 -64 -17 213 127 247 210 267 306 208 178 175 66 95 86 36 37 42

GFSGBSN_con_3kmhel_348.txt.gz
Helicity
47 49 51 52 57 64 74 74 82 86 91 91 91 87 90 87 96 98 89 99 111 102 100 101 135 89 32 39 56 41 60 87 59 31 18 12 29 39 96 71 83 68 34 36 28 44 43
67 64 64 63 58 61 64 73 77 85 91 97 96 105 109 102 104 103 108 95 97 106 85 84 87 63 46 46 31 33 65 70 46 45 32 44 53 30 58 66 75 48 43 34 23 25 21
73 73 73 77 79 76 76 71 75 80 88 100 102 106 114 119 125 117 113 105 90 85 90 63 29 8 44 27 48 16 39 66 71 45 45 33 45 55 54 90 53 64 70 37 31 29 28
84 84 83 84 87 92 89 83 86 88 88 92 110 112 128 131 138 134 130 107 90 62 58 31 18 26 17 26 26 37 46 52 66 53 40 45 29 59 68 79 90 98 75 92 37 63 27
90 94 95 97 97 98 98 100 102 104 102 96 101 116 138 130 143 153 145 129 86 28 38 46 44 41 38 66 45 19 33 32 44 76 74 78 68 90 103 108 113 100 53 95 61 62 87
83 88 92 99 103 106 107 107 107 115 123 120 118 134 151 138 169 156 159 99 22 46 67 52 64 62 41 94 123 55 23 37 52 64 116 101 123 159 157 128 69 45 89 63 70 38 128
75 79 87 97 100 104 111 115 116 120 134 138 143 167 177 167 207 166 74 57 90 71 104 73 67 76 54 125 96 83 62 47 73 75 91 113 144 117 77 74 95 94 95 95 69 39 118
72 83 87 89 106 116 117 119 125 134 144 148 155 181 205 202 204 167 29 77 68 49 62 51 19 12 17 78 90 116 97 86 94 83 108 128 71 44 53 66 76 74 105 67 36 51 79
64 74 86 96 103 111 119 128 135 145 158 162 170 198 225 261 179 55 59 69 55 37 34 61 51 27 25 52 50 65 97 123 124 102 96 104 37 40 15 42 57 75 76 81 53 78 74
73 73 73 81 91 103 109 122 136 144 157 164 175 195 208 342 83 93 75 105 67 4 43 31 67 51 84 82 58 30 85 110 146 75 91 78 29 28 27 28 81 82 66 76 82 109 95
79 81 68 69 76 79 91 105 116 127 140 158 160 179 182 131 89 101 109 140 75 51 99 50 71 71 105 144 68 102 93 125 108 115 143 74 61 58 57 62 81 59 81 86 76 100 96
79 69 63 67 73 75 88 100 110 118 125 153 162 157 165 84 97 79 124 133 96 169 98 99 63 79 121 117 95 87 133 136 85 118 139 69 85 83 79 102 97 98 109 141 123 122 146
88 71 63 61 66 70 86 99 108 115 116 145 160 166 128 69 99 111 138 154 215 175 144 137 153 117 81 72 76 82 123 165 166 196 168 153 130 118 90 126 146 162 136 105 108 133 120
79 77 76 64 59 65 73 85 99 111 115 141 170 162 49 68 79 117 152 236 224 171 219 211 138 97 91 87 65 104 115 148 177 193 161 142 135 110 121 105 86 86 98 129 103 102 95
72 78 73 62 51 57 63 75 90 109 125 143 154 70 69 73 64 91 196 276 215 207 194 220 183 152 124 106 102 106 78 77 94 152 157 131 122 94 102 157 129 98 117 86 139 136 114
68 70 65 62 51 56 68 82 97 117 139 160 93 98 97 105 78 138 224 237 222 170 196 174 212 195 206 185 137 121 107 76 95 90 138 95 116 75 109 143 155 128 112 151 173 152 109
73 67 57 65 68 66 71 89 104 127 153 125 104 146 103 128 109 176 224 202 180 144 125 167 185 249 233 218 164 150 131 93 58 95 158 166 142 100 123 132 136 180 172 189 140 164 129
84 73 62 61 65 70 73 87 104 134 170 109 122 186 123 118 192 179 174 147 163 129 121 142 135 157 202 226 215 171 137 110 82 76 118 120 128 115 89 109 97 113 111 185 182 108 127
97 81 73 64 64 66 72 77 90 117 135 116 160 167 135 113 191 186 158 156 142 122 141 126 130 141 139 160 203 158 159 167 107 -5 55 132 161 176 166 145 125 132 138 160 174 157 128
83 98 79 66 58 60 58 66 80 104 122 112 151 173 196 161 159 135 153 133 142 97 58 97 115 123 122 110 124 177 179 178 185 100 68 61 151 196 159 107 88 123 117 155 161 151 132
114 101 94 74 64 57 53 52 67 95 116 124 193 190 173 162 185 159 147 151 140 147 114 79 88 160 140 101 89 93 76 100 120 143 85 84 139 158 158 134 176 123 163 201 164 152 165
134 131 111 88 78 69 58 56 59 80 96 149 184 190 190 160 174 174 167 158 173 200 155 187 162 168 143 117 156 201 200 97 90 174 142 152 141 129 141 132 128 150 133 135 163 179 121
145 145 127 105 87 82 65 62 60 75 108 144 154 164 160 189 175 170 173 196 205 179 148 127 133 131 143 147 223 236 144 134 117 104 132 158 167 160 142 157 167 167 123 133 159 176 157
131 140 151 133 108 93 83 67 63 66 92 110 128 144 163 171 160 171 179 176 173 151 154 182 153 114 144 192 181 125 116 95 85 105 72 141 205 203 133 203 177 124 129 155 142 118 134
129 136 125 144 124 103 100 75 72 70 74 103 108 138 147 174 171 174 170 162 145 138 110 109 108 94 126 121 115 160 160 108 76 91 98 93 135 186 172 158 141 123 87 112 151 67 146
77 137 141 137 117 110 108 91 76 63 69 97 95 97 116 127 131 134 138 127 130 136 138 101 104 77 71 106 127 142 162 155 113 65 122 170 159 177 186 147 69 32 109 121 119 61 36
108 151 135 164 123 121 118 101 80 71 70 96 88 85 106 115 98 103 124 110 114 110 107 100 135 147 108 123 131 145 166 175 174 130 85 174 216 198 243 164 161 110 85 145 130 26 30
98 118 130 146 129 128 119 105 85 84 82 102 84 82 87 82 84 82 105 114 114 106 103 109 96 117 141 125 115 101 102 134 135 141 122 124 170 216 220 183 88 125 182 136 42 75 54
65 124 169 149 139 132 119 104 92 92 75 96 93 76 67 76 64 70 73 63 79 85 96 130 129 124 139 140 187 148 115 90 101 82 126 157 142 121 166 169 131 99 117 106 100 84 49

GFSGBSN_con_3kmhel_351.txt.gz
Helicity
41 41 43 56 60 67 74 75 81 88 89 91 92 91 93 96 93 97 93 84 77 91 79 109 142 104 37 46 70 46 45 63 70 31 17 24 16 26 69 54 39 38 57 48 28 25 33
57 53 54 51 53 58 67 77 78 86 95 102 101 102 110 107 108 105 100 96 83 81 86 85 94 89 37 40 51 22 48 64 37 48 33 39 32 35 45 72 67 76 58 44 29 35 34
71 65 66 67 71 71 67 65 76 85 88 94 106 106 111 126 138 133 119 101 89 63 68 66 30 28 40 10 46 24 41 35 20 29 45 46 64 58 58 71 91 101 82 57 43 32 29
79 78 76 77 82 79 75 78 75 77 82 90 97 99 97 137 157 161 140 119 77 48 26 27 5 27 27 40 22 44 43 52 52 35 48 49 27 73 88 83 124 105 75 42 57 54 31
73 85 91 92 93 94 95 95 98 101 100 108 118 110 106 144 162 159 138 123 63 11 18 56 45 41 45 50 41 15 25 27 45 75 84 81 71 95 112 139 137 114 53 49 46 49 79
65 73 81 92 100 103 103 109 112 118 120 126 147 137 134 178 193 167 144 47 28 37 48 45 55 56 48 69 112 72 15 28 55 75 96 103 116 136 157 146 74 61 66 57 42 64 69
60 70 75 79 90 102 109 107 113 128 131 132 147 158 156 196 196 188 69 37 49 44 83 52 45 70 49 119 87 77 58 78 86 91 112 125 152 118 94 92 106 84 76 43 27 39 56
61 68 77 82 84 93 106 116 123 136 142 147 163 165 182 215 177 163 33 79 63 43 39 35 33 16 37 56 71 100 83 93 105 95 127 142 104 63 87 91 82 70 86 41 19 46 49
63 63 71 84 94 98 105 111 123 140 147 157 176 180 208 247 158 47 49 69 72 32 43 51 48 52 49 48 46 65 82 100 103 129 95 111 81 88 89 95 72 59 64 51 45 70 60
59 70 66 65 79 98 109 110 117 128 147 161 174 181 206 311 78 83 69 104 65 10 77 54 75 79 96 99 47 50 79 92 121 91 102 94 92 74 74 55 75 51 45 52 59 69 72
59 71 68 64 68 75 93 112 124 133 140 157 169 173 184 139 102 95 94 128 56 47 94 67 78 74 105 140 84 122 116 116 101 121 142 125 79 74 59 35 83 58 69 92 101 89 89
54 70 70 60 66 73 74 95 115 136 144 160 173 168 177 80 98 85 120 113 77 180 116 109 80 65 119 118 143 106 156 144 108 119 133 90 73 58 57 70 91 101 129 143 130 123 115
33 72 77 66 64 71 84 92 108 128 147 174 172 181 128 79 102 110 130 121 198 198 149 170 158 104 73 98 108 129 153 172 146 152 135 158 117 115 103 107 130 169 169 132 118 132 101
51 59 74 65 60 67 75 92 111 124 135 171 189 168 70 71 97 123 136 214 221 178 223 192 148 109 86 89 93 144 149 154 155 155 120 142 121 118 129 117 107 128 128 133 114 108 86
81 60 67 68 61 58 64 79 103 123 142 161 174 96 92 91 89 114 188 248 196 202 188 224 199 170 156 133 121 127 141 139 107 137 123 112 125 124 125 151 136 138 132 117 137 147 127
86 69 69 78 66 55 52 68 91 117 142 158 108 118 109 129 100 147 226 213 200 174 204 179 199 182 186 193 172 133 112 103 111 82 136 110 134 102 119 139 173 150 156 130 176 153 112
80 79 63 74 64 53 52 58 77 106 139 124 108 127 92 125 122 198 217 192 167 162 145 176 190 222 219 194 184 179 121 179 136 114 170 169 146 105 109 116 137 190 190 200 163 175 131
102 97 84 72 62 55 53 55 78 116 154 112 135 160 125 125 192 208 196 192 188 165 154 148 135 147 176 183 185 186 179 186 149 106 108 133 134 127 108 109 104 133 141 186 177 137 160
112 105 90 74 69 59 54 51 72 109 134 131 175 184 137 138 196 205 177 172 161 154 162 145 149 146 151 166 201 153 176 193 232 129 111 124 151 165 135 117 125 115 140 164 175 164 119
133 117 100 80 71 66 54 50 68 105 123 139 179 179 208 180 185 167 187 160 164 133 121 135 131 143 130 145 138 185 185 188 182 152 136 88 140 170 134 107 120 122 136 151 167 125 106
136 122 124 109 80 74 69 67 76 93 107 143 214 184 180 131 170 177 173 154 168 159 151 125 132 159 143 135 141 155 140 129 116 155 106 107 116 119 112 93 130 125 130 130 168 137 106
161 136 131 137 95 75 66 64 68 80 102 176 176 182 195 152 138 153 180 166 148 172 166 166 162 155 150 158 190 162 188 125 126 135 119 113 107 114 125 96 85 105 118 100 116 150 104
118 135 136 121 99 86 78 72 66 76 112 178 167 172 174 178 172 161 148 163 143 136 163 152 130 147 120 125 175 153 119 128 111 139 148 125 103 121 118 146 118 101 114 120 134 151 118
114 111 123 129 127 98 89 77 71 64 96 120 141 163 191 179 183 194 160 167 152 171 165 121 122 96 129 170 135 97 89 81 91 99 99 121 119 104 121 142 141 135 130 81 122 106 116
75 106 131 139 147 103 91 90 79 68 79 119 122 156 173 208 189 187 174 168 158 162 148 140 110 90 124 112 87 103 116 104 80 76 99 107 147 138 136 145 148 126 107 99 119 65 84
25 115 145 145 165 141 109 107 91 72 87 123 130 129 159 160 153 154 166 159 149 147 147 106 98 99 89 90 121 136 117 128 146 156 141 120 161 173 170 150 105 74 122 109 102 44 22
-1 81 148 194 185 142 123 118 99 73 74 103 104 101 123 145 121 126 143 128 119 134 147 121 142 140 130 144 151 166 178 184 156 175 145 134 189 202 203 170 155 180 69 113 114 55 50
7 91 135 142 113 126 139 130 101 78 77 103 94 89 88 115 92 84 99 110 132 136 140 110 123 141 157 147 180 175 158 166 189 186 185 190 179 198 226 198 107 163 113 140 68 69 41
6 9 72 164 171 165 143 123 102 87 85 100 94 81 79 87 74 82 83 92 95 93 112 134 152 115 142 158 197 207 211 166 142 180 169 162 147 162 175 222 218 107 60 121 106 121 79